RH
13 14 14 15 17 17 18 20 21 21 22 22 21 21 21 20 18 17 17 20 21 21 19 19 21 22 23 26 28 30 31 32 35 36 36 38 41 43 43 44 46 49 53 57 63 68 71 72 74 76 79 82 85 88 90 90 90 90 88 86 85 84 83 81 79 76 75 74 73 73 72 71 70 69 68 67 67 66 64 62 59 57 55 55 55 55
14 14 15 17 18 19 20 22 22 23 23 23 21 19 20 20 19 16 17 20 21 21 20 19 21 23 26 28 29 31 31 32 35 36 36 39 41 41 42 44 46 49 53 58 63 66 69 72 75 78 82 87 91 92 91 89 87 86 83 82 81 82 82 79 76 74 73 73 71 71 70 69 69 68 67 67 66 65 63 62 61 58 55 52 51 51
14 15 17 19 20 22 23 23 23 23 21 20 19 19 19 19 18 17 17 20 21 21 20 20 22 24 27 29 29 30 31 32 36 36 37 39 40 40 42 44 47 52 58 61 64 67 70 74 77 79 82 86 88 88 87 85 83 82 81 79 79 80 78 74 72 71 71 72 70 69 69 69 69 69 69 68 67 65 63 62 61 58 56 54 51 49
14 15 19 22 23 22 20 20 21 20 19 19 19 20 20 19 20 20 18 20 21 21 22 22 22 24 27 28 29 31 31 33 35 35 36 37 39 41 43 47 53 59 63 65 68 71 74 75 76 75 75 75 75 74 74 75 78 80 76 73 73 74 73 70 69 70 70 70 69 69 69 69 69 68 67 66 64 63 61 60 59 57 55 54 53 50
16 18 21 23 22 20 19 18 19 19 18 19 20 21 21 20 21 21 20 20 20 22 23 22 21 24 28 30 30 31 31 33 33 34 37 39 40 43 48 56 60 63 66 71 75 78 80 79 76 72 70 69 68 69 69 69 73 80 81 80 76 72 73 73 72 72 72 72 71 70 69 68 67 66 64 63 63 61 59 57 56 55 54 53 52 51
17 20 22 21 20 19 19 18 19 19 19 20 21 21 22 22 21 21 21 21 21 23 24 24 24 25 28 31 32 31 31 32 34 37 41 42 43 49 58 63 64 68 76 83 86 86 83 77 71 68 68 68 69 73 78 76 75 79 84 88 85 80 81 81 78 75 74 72 71 69 67 66 65 64 63 62 62 61 60 59 58 56 54 52 51 50
18 20 21 20 20 20 18 18 19 21 22 22 22 22 23 23 23 22 22 24 24 25 25 26 29 27 26 31 33 32 34 36 40 42 42 44 49 56 62 65 71 79 85 86 83 80 76 71 69 71 69 66 65 67 68 70 72 74 77 81 80 76 76 76 74 73 72 70 67 67 65 63 62 61 62 61 61 61 61 61 59 57 55 54 52 51
19 19 19 20 20 19 18 19 20 21 23 23 22 22 23 23 23 23 24 25 25 26 25 25 29 29 27 33 36 35 38 43 43 43 44 50 57 62 67 74 82 85 85 83 79 76 70 63 61 60 57 52 50 47 46 49 54 60 64 66 66 68 72 74 70 68 69 69 67 67 65 63 61 60 59 61 63 63 61 57 54 52 50 49 48 46
20 19 20 21 19 19 19 20 21 22 23 22 22 23 23 23 23 23 23 24 25 26 26 25 27 30 29 34 41 42 44 46 45 46 51 57 62 67 74 81 83 81 79 76 70 59 46 37 32 31 30 29 29 29 30 34 37 41 46 50 54 59 63 65 62 61 65 67 66 66 65 64 62 62 63 65 65 63 58 53 48 44 41 39 38 38
20 20 22 23 20 20 21 21 22 23 23 22 23 23 22 22 22 22 22 24 26 26 26 26 28 34 35 35 41 46 47 48 48 52 59 63 67 71 75 77 74 68 61 52 40 29 21 19 20 21 21 22 24 24 25 27 31 34 38 44 49 51 53 57 60 63 64 65 66 65 62 60 60 61 63 63 60 55 50 45 40 34 32 31 31 30
22 24 25 24 22 22 22 23 24 24 23 23 23 21 20 21 22 23 22 23 27 27 28 30 34 40 43 40 44 48 49 51 54 59 64 68 71 72 71 66 59 50 41 30 21 17 18 20 21 22 23 24 24 25 27 32 38 41 44 50 52 53 59 68 72 72 71 70 71 68 63 61 62 63 63 63 57 49 43 38 32 28 26 26 26 25
23 24 23 24 24 24 23 23 25 25 24 24 22 20 20 22 22 23 24 25 30 32 33 34 36 42 45 44 46 49 50 53 60 67 71 71 72 69 61 52 44 36 26 19 17 18 20 22 23 25 26 25 24 26 31 38 42 42 44 50 51 53 61 68 69 70 70 70 72 73 70 69 71 71 69 64 56 47 40 34 30 28 27 26 25 24
20 21 22 24 25 24 23 22 23 25 24 23 22 22 24 26 28 29 29 29 32 35 35 36 39 42 42 41 45 48 50 56 65 72 73 73 70 62 52 43 35 26 18 17 18 20 22 25 26 27 26 24 24 27 31 32 30 30 33 40 46 51 58 61 61 61 62 62 66 72 76 75 74 70 64 57 49 42 36 32 29 28 27 26 25 25
21 21 22 24 24 24 23 22 24 25 24 25 25 28 31 34 40 42 38 36 37 35 34 36 39 42 41 41 45 48 51 59 67 71 73 70 62 51 44 37 27 18 16 17 18 20 24 27 27 26 25 24 22 22 24 23 25 29 36 44 50 57 64 65 62 60 59 60 63 67 70 69 64 58 53 48 44 39 35 31 29 28 27 27 26 27
23 23 22 23 24 24 24 25 27 27 27 28 28 31 35 39 46 50 44 44 45 40 37 39 40 42 44 44 46 49 53 60 65 68 67 60 49 42 36 26 18 16 16 16 18 22 25 26 25 24 23 22 20 21 24 28 35 42 47 51 55 58 62 63 62 61 61 62 61 60 58 54 50 47 45 43 41 39 35 31 29 28 27 28 29 31
24 23 23 25 26 25 26 28 30 29 29 30 30 32 37 39 42 45 44 45 48 46 44 41 39 42 45 45 47 50 54 59 62 61 54 47 42 39 31 20 16 18 16 15 20 24 25 25 24 23 22 21 22 25 28 32 37 43 47 52 57 60 61 62 62 62 62 59 55 50 45 43 42 43 44 42 39 37 34 31 30 29 30 32 34 35
25 24 24 26 27 27 28 30 31 32 31 31 33 36 38 38 40 43 42 40 42 46 45 41 40 41 44 47 48 50 55 57 55 50 45 44 43 36 26 21 21 19 14 22 33 32 27 25 24 23 23 26 35 36 31 31 32 36 44 51 55 58 57 57 57 54 51 47 44 42 41 42 44 45 43 38 34 33 32 32 32 33 34 36 36 35
28 27 25 26 28 28 30 31 30 32 33 33 37 39 37 38 40 44 45 43 43 46 43 43 47 46 47 51 51 50 54 52 47 45 45 46 39 26 19 19 21 16 15 29 41 35 27 24 24 25 26 33 44 41 32 34 37 37 42 45 46 47 47 46 45 43 41 40 41 42 45 46 46 42 37 33 32 33 34 34 34 35 35 35 34 32
29 29 27 27 28 28 30 31 31 32 33 35 38 38 39 44 46 47 52 55 57 55 48 44 47 49 50 53 52 53 52 48 46 46 47 45 35 23 18 18 17 15 18 27 30 26 24 25 25 27 30 34 38 35 33 37 38 36 40 40 37 37 36 36 36 36 36 37 39 42 45 45 40 36 33 33 34 33 32 33 34 34 35 35 37 39
30 30 29 28 29 29 29 30 32 33 34 36 38 38 40 45 48 50 53 57 60 61 59 56 51 48 50 51 53 54 50 48 49 48 46 40 29 21 20 21 18 15 21 28 25 22 23 24 25 28 31 33 34 34 35 36 34 35 38 38 36 34 30 29 28 29 28 27 29 33 35 36 35 35 35 35 35 35 36 39 41 44 48 52 57 64
30 31 31 29 29 31 31 31 33 33 36 38 41 43 45 45 47 50 51 53 59 63 66 69 60 49 49 51 50 51 49 49 50 48 42 31 19 16 21 25 22 17 21 25 22 21 22 23 26 29 32 35 34 33 33 33 34 37 38 37 38 37 34 31 30 30 29 28 31 34 36 38 40 41 41 42 44 47 50 54 59 64 69 74 80 86
31 32 32 31 30 31 32 33 34 35 37 40 43 46 47 48 50 53 53 53 58 63 66 74 71 55 49 50 48 49 50 49 48 44 36 24 15 17 22 24 22 18 19 22 21 21 23 23 25 30 36 36 33 32 32 33 35 37 36 35 35 36 37 38 38 38 38 39 42 44 44 46 47 48 50 52 55 59 64 69 73 77 83 88 93 95
33 33 34 34 32 31 33 36 38 38 38 40 44 44 45 48 51 56 59 56 58 60 60 69 72 57 50 50 48 49 50 48 45 40 30 20 16 18 19 18 17 17 19 20 20 20 22 24 27 34 38 36 34 34 33 34 36 36 37 35 34 35 37 39 40 41 44 47 48 48 49 50 52 55 57 60 63 68 75 79 83 87 92 95 95 95
34 34 35 34 31 31 34 36 38 39 40 41 44 44 46 49 50 54 59 58 61 62 60 68 71 59 51 50 48 50 51 48 44 38 29 23 20 19 17 15 16 18 20 20 20 19 21 26 30 33 34 34 35 38 37 37 37 36 36 36 36 38 40 42 44 46 49 51 51 52 54 56 59 62 66 70 74 80 86 90 92 94 95 94 93 93
34 33 34 35 34 34 36 37 38 40 42 43 45 46 48 51 54 56 58 60 64 63 64 73 72 57 49 48 49 52 51 47 43 36 28 23 21 18 16 16 17 19 20 20 20 19 21 27 31 31 31 32 36 40 42 42 41 38 38 38 39 42 44 48 51 53 54 54 55 57 59 62 66 71 77 82 86 90 93 95 95 96 96 96 96 97
34 33 35 37 40 42 42 42 42 42 44 45 47 50 51 53 56 57 59 65 66 64 68 73 65 51 45 46 51 52 48 46 40 31 23 20 18 17 16 17 19 19 19 19 20 20 21 25 29 28 29 32 38 43 47 48 46 45 44 45 45 46 49 53 56 57 57 58 60 63 66 70 74 80 85 89 93 95 96 97 98 98 98 98 99 100
35 36 37 38 40 43 45 43 42 43 46 48 50 52 53 55 57 56 60 65 65 68 72 70 65 60 51 49 52 50 49 47 37 24 20 19 18 18 17 17 18 17 18 19 20 21 21 24 27 27 29 35 41 46 50 53 53 51 52 52 52 53 54 56 58 59 62 64 67 68 71 76 81 86 90 93 96 98 99 100 100 100 100 100 100 101
35 36 38 41 41 41 42 42 42 45 47 49 51 53 53 56 58 59 62 63 64 74 75 64 65 67 57 52 55 52 50 45 30 21 20 19 19 19 17 17 17 17 18 19 20 21 21 23 26 27 32 40 46 50 55 60 60 60 60 58 57 58 58 57 59 62 66 68 69 70 75 81 86 89 91 93 96 98 100 101 100 100 101 101 101 101
34 35 40 45 44 42 42 43 43 46 47 47 49 51 51 56 60 61 63 62 66 76 73 61 63 65 56 54 57 53 49 39 26 22 21 20 20 19 17 18 17 18 19 20 21 22 21 22 24 28 35 43 48 53 60 64 66 66 65 62 61 61 58 59 61 64 67 68 69 74 81 85 87 88 89 93 96 98 100 100 100 101 101 101 101 101
34 35 42 47 47 44 42 43 44 46 47 47 48 49 50 54 58 60 62 63 65 70 67 61 62 61 56 56 54 48 41 32 25 24 22 21 20 18 18 19 19 19 20 20 23 23 21 21 24 29 36 43 51 58 62 64 67 69 67 65 64 62 59 60 62 65 67 69 72 80 85 86 86 87 88 92 96 99 100 101 101 101 100 100 101 102
34 37 44 46 44 42 41 42 44 45 45 46 47 49 51 54 57 61 64 65 67 68 64 62 63 60 54 53 51 44 37 29 25 24 23 22 20 18 19 21 20 20 21 22 24 23 22 23 24 28 36 44 53 61 63 63 67 72 72 69 66 64 62 61 63 66 68 71 78 84 84 84 86 87 89 92 96 99 101 102 103 102 101 101 101 101
36 38 42 42 41 41 41 43 44 44 45 49 51 51 52 55 58 62 64 65 67 68 65 65 66 60 53 52 51 45 35 29 26 24 23 22 20 20 22 22 21 21 22 24 23 20 22 25 24 27 35 44 54 63 66 67 69 72 75 73 69 66 64 61 63 67 68 74 83 85 83 84 87 88 89 92 95 98 102 103 103 102 102 101 101 101
40 39 39 41 42 41 41 43 43 44 46 49 50 51 51 54 57 61 62 62 64 67 68 68 65 61 57 57 56 47 35 29 28 26 25 22 20 21 22 21 22 22 24 25 22 19 23 25 25 28 35 44 56 66 72 76 77 75 76 76 73 69 64 62 66 69 72 79 85 84 83 87 88 88 90 92 95 99 102 102 103 102 101 100 100 101
47 42 39 42 42 41 42 43 44 46 47 46 47 48 50 53 57 62 64 64 64 64 65 65 63 62 63 62 58 48 36 31 31 29 25 22 21 22 22 22 22 23 24 23 20 20 25 25 26 31 37 47 60 70 75 78 80 79 77 76 76 72 65 63 67 72 76 83 85 82 84 88 89 90 92 94 96 99 101 102 103 102 101 100 101 101
46 42 42 45 44 42 43 44 47 48 47 47 48 49 51 54 55 58 61 61 60 61 62 64 63 63 63 62 55 46 37 34 33 30 25 23 23 24 22 22 23 23 23 21 19 22 26 26 27 31 39 53 66 73 75 77 78 79 79 77 76 74 68 64 67 74 80 84 83 82 85 89 90 92 94 96 97 99 101 102 101 101 101 100 99 98
42 42 44 45 44 44 45 50 53 50 47 49 51 51 54 55 56 58 60 59 59 61 63 63 63 62 62 59 52 43 39 39 34 28 25 25 25 24 23 23 24 23 22 21 20 23 26 26 27 32 43 60 71 73 74 76 77 80 81 78 74 73 71 66 67 75 83 84 82 82 85 89 91 93 94 95 98 100 101 101 99 99 99 96 94 93
41 42 43 43 45 47 48 51 51 48 47 50 52 53 54 56 57 61 64 62 60 63 64 63 63 62 61 57 50 44 42 39 32 26 26 27 26 23 23 24 22 19 19 20 21 24 25 25 26 33 47 64 73 73 73 74 76 79 82 81 75 71 72 69 67 76 85 84 81 83 85 88 92 94 95 96 98 100 100 98 97 95 93 91 89 89
43 43 43 45 48 49 49 52 53 52 51 50 52 53 54 56 57 60 65 66 62 63 66 66 65 64 62 57 52 46 41 36 30 26 26 27 26 23 23 23 19 16 18 19 21 23 24 23 25 34 50 66 72 72 71 72 74 77 80 82 76 71 72 70 68 77 86 84 81 83 85 88 92 94 96 98 99 99 97 93 91 89 87 86 85 85
43 44 44 46 48 48 51 55 58 59 55 51 53 55 55 57 59 61 66 67 63 65 68 69 69 68 65 61 56 49 42 36 31 28 27 28 26 23 23 21 16 15 17 19 21 23 23 22 23 33 51 66 70 70 69 68 71 74 76 79 77 73 72 71 70 77 85 84 81 83 84 87 91 93 95 96 96 94 89 85 84 84 83 83 83 84
44 44 44 46 47 49 53 55 56 57 54 53 56 57 57 60 63 67 70 67 65 69 72 72 73 72 69 67 60 52 45 39 35 32 31 30 27 23 22 18 15 15 16 17 19 21 22 23 27 36 51 63 66 66 66 66 68 72 73 74 75 75 74 71 71 78 85 84 81 82 84 88 91 93 93 91 87 84 81 80 81 82 83 84 85 87
46 45 44 46 47 49 54 55 54 53 53 55 58 59 61 64 67 71 72 69 68 71 73 75 76 74 73 71 63 54 48 44 40 36 33 31 27 23 20 17 16 16 16 16 18 19 21 22 26 35 49 60 63 63 64 65 67 69 69 69 71 75 75 72 72 79 84 83 80 81 83 87 89 89 87 84 79 76 77 79 81 82 83 84 86 90
46 46 45 46 46 48 52 54 53 52 52 54 58 61 63 67 68 68 69 68 69 71 73 76 77 75 74 73 67 59 51 44 40 37 35 32 28 24 20 18 16 15 14 16 17 19 20 21 23 33 47 56 60 61 63 65 66 67 66 66 68 72 74 72 74 80 83 81 79 79 81 84 85 83 80 78 74 72 76 80 83 83 83 85 87 92
43 43 43 44 46 47 51 54 53 52 53 55 58 61 62 64 64 64 65 68 71 72 74 76 77 76 75 74 70 62 51 43 40 39 37 33 29 26 22 19 18 16 15 16 17 17 20 21 21 30 45 54 56 59 63 64 66 66 64 63 66 69 71 72 75 80 82 79 77 77 78 79 80 79 77 74 72 74 78 81 83 82 84 87 89 92
44 43 41 43 46 48 51 53 52 53 54 54 56 57 58 59 59 61 65 68 71 74 76 77 77 77 75 73 69 60 50 44 42 40 37 35 31 28 24 21 19 17 15 17 17 16 19 21 17 22 40 52 54 58 63 65 66 65 62 60 64 67 68 70 75 79 80 77 75 75 74 74 75 76 75 74 73 76 79 80 80 80 84 88 89 91
42 41 40 43 47 48 48 49 50 52 53 52 52 53 54 55 57 59 63 67 70 74 77 77 77 76 74 71 66 58 51 47 44 41 38 36 33 30 27 24 21 18 16 17 17 15 16 18 15 19 37 51 53 56 62 65 65 63 59 58 62 65 65 68 73 76 77 74 73 72 70 70 72 73 74 75 76 76 76 76 76 78 83 86 88 91
40 40 39 42 44 45 45 46 47 49 49 49 50 51 52 54 55 57 61 65 68 72 76 77 77 75 73 69 64 59 54 49 46 43 40 38 35 33 30 26 23 20 17 16 16 14 14 15 14 17 34 50 52 53 60 63 63 61 56 55 60 63 63 64 68 72 73 71 69 68 67 68 69 71 73 75 75 74 72 72 74 78 81 84 88 92
38 38 39 40 42 43 43 44 46 47 47 47 48 50 51 53 55 57 60 62 65 69 73 75 76 75 72 68 65 61 57 51 48 46 43 40 37 35 32 29 25 22 19 16 16 13 12 14 14 16 31 47 51 51 57 62 62 59 54 53 56 60 60 61 63 65 67 67 66 65 65 66 67 69 71 72 71 70 69 69 73 77 80 84 88 92
37 38 38 39 42 43 43 43 45 46 47 48 49 50 51 52 54 57 59 61 64 67 69 70 72 74 72 68 66 64 59 54 50 48 46 43 40 37 35 31 28 25 21 18 16 14 12 13 14 15 27 44 50 49 53 59 61 57 53 51 53 55 57 57 59 61 63 64 64 62 62 65 66 67 68 67 67 67 67 69 71 75 80 84 88 91
37 39 39 39 42 44 44 44 46 46 47 48 49 50 51 52 54 57 60 62 64 66 65 65 68 69 68 68 68 66 62 57 52 49 48 46 42 40 37 34 31 28 24 20 17 15 13 13 14 15 23 39 49 49 50 56 60 57 53 50 50 52 53 54 56 58 59 60 60 59 60 62 64 65 64 64 64 66 68 70 70 72 76 81 85 87
39 40 41 42 44 46 45 45 46 46 46 48 49 51 52 54 56 58 60 62 65 65 63 63 64 64 64 67 69 67 64 60 55 51 50 48 46 43 40 36 33 30 26 22 19 17 15 13 14 16 21 33 46 49 48 52 57 57 53 50 49 49 50 51 52 54 55 57 57 56 57 60 61 62 62 62 63 64 67 69 70 69 70 73 76 78
40 40 42 44 45 45 44 45 47 47 46 48 49 52 53 55 57 59 61 63 65 64 62 62 62 61 60 64 67 67 66 63 58 53 51 50 49 46 43 39 36 32 29 25 21 18 16 14 14 16 20 28 40 48 47 48 53 56 55 51 49 48 48 50 52 52 54 55 55 54 55 58 59 60 61 62 62 63 65 67 69 69 69 68 68 69